Location: ????????
(55.6333°N, 37.7000°E)
Time: 00:34:26
(UTC+00:00)

Resurs 1-4 Rocket - Visible Passes

Search period start: 19 May 2026 00:00
Search period end: 29 May 2026 00:00
Orbit: 798 x 812 km, 98.8° (Epoch: 18 May)

Date Brightness Start Highest point End Pass type
(mag) Time Alt. Az. Time Alt. Az. Time Alt. Az.
19 May 4.1 23:14:46 10° NE 23:18:55 23° E 23:23:02 10° SE visible
20 May 4.5 22:50:19 10° NE 22:53:21 15° E 22:56:21 10° ESE visible
22 May 2.9 00:03:36 10° NNE 00:08:44 50° E 00:13:50 10° S visible
22 May 3.5 23:38:35 10° NNE 23:43:21 33° E 23:48:04 10° SSE visible
23 May 4.1 23:13:46 10° NE 23:17:52 22° E 23:21:56 10° SE visible
24 May 4.5 22:49:21 10° NE 22:52:17 15° E 22:55:12 10° ESE visible
26 May 2.9 00:02:35 10° NNE 00:07:42 49° E 00:12:46 10° S visible
26 May 3.6 23:37:34 10° NNE 23:42:18 32° E 23:47:00 10° SSE visible
27 May 4.1 23:12:47 10° NE 23:16:49 22° E 23:20:50 10° SE visible
28 May 4.5 22:48:24 10° NE 22:51:14 14° E 22:54:03 10° ESE visible
